Time,TemperatureF,DewpointF,PressureIn,WindDirection,WindDirectionDegrees,WindSpeedMPH,WindSpeedGustMPH,Humidity,HourlyPrecipIn,Conditions,Clouds,dailyrainin,SoftwareType,DateUTC
2013-08-29 00:23:00,69.0,68.0,30.01,WSW,257,0.0,0.0,95,0.00,,,0.00,,2013-08-29 05:23:00,
2013-08-29 00:42:00,69.0,68.0,30.01,WSW,257,0.0,0.0,95,0.00,,,0.00,,2013-08-29 05:42:00,
2013-08-29 00:52:00,69.0,68.0,30.01,WSW,257,0.0,0.0,96,0.00,,,0.00,,2013-08-29 05:52:00,
2013-08-29 01:12:00,68.0,67.0,30.01,WSW,257,0.0,0.0,96,0.00,,,0.00,,2013-08-29 06:12:00,
2013-08-29 01:22:00,68.0,67.0,30.01,WSW,257,0.0,0.0,96,0.00,,,0.00,,2013-08-29 06:22:00,
2013-08-29 01:43:00,68.0,67.0,30.01,WSW,257,0.0,0.0,96,0.00,,,0.00,,2013-08-29 06:43:00,
2013-08-29 01:52:00,68.0,67.0,30.00,WSW,257,0.0,0.0,96,0.00,,,0.00,,2013-08-29 06:52:00,
2013-08-29 02:12:00,68.0,67.0,30.00,WSW,257,0.0,0.0,96,0.00,,,0.00,,2013-08-29 07:12:00,
2013-08-29 02:22:00,68.0,67.0,30.00,WSW,257,0.0,0.0,97,0.00,,,0.00,,2013-08-29 07:22:00,
2013-08-29 02:42:00,67.0,66.0,30.00,WSW,257,0.0,0.0,96,0.00,,,0.00,,2013-08-29 07:42:00,
2013-08-29 02:53:00,67.0,66.0,30.00,WSW,257,0.0,0.0,96,0.00,,,0.00,,2013-08-29 07:53:00,
2013-08-29 03:12:00,67.0,66.0,30.00,WSW,257,0.0,0.0,96,0.00,,,0.00,,2013-08-29 08:12:00,
2013-08-29 03:22:00,67.0,66.0,30.01,WSW,257,0.0,0.0,97,0.00,,,0.00,,2013-08-29 08:22:00,
2013-08-29 03:42:00,67.0,66.0,30.01,WSW,257,0.0,0.0,97,0.00,,,0.00,,2013-08-29 08:42:00,
2013-08-29 03:52:00,67.0,66.0,30.01,WSW,257,0.0,0.0,97,0.00,,,0.00,,2013-08-29 08:52:00,
2013-08-29 04:12:00,67.0,66.0,30.01,WSW,257,0.0,0.0,97,0.00,,,0.00,,2013-08-29 09:12:00,
2013-08-29 04:22:00,67.0,66.0,30.00,WSW,257,0.0,0.0,97,0.00,,,0.00,,2013-08-29 09:22:00,
2013-08-29 04:43:00,67.0,66.0,30.00,WSW,257,0.0,0.0,97,0.00,,,0.00,,2013-08-29 09:43:00,
2013-08-29 04:55:00,66.0,65.0,30.00,WSW,257,0.0,0.0,97,0.00,,,0.00,,2013-08-29 09:55:00,
2013-08-29 05:14:00,66.0,65.0,30.00,WSW,257,0.0,0.0,97,0.00,,,0.00,,2013-08-29 10:14:00,
2013-08-29 05:24:00,66.0,65.0,30.01,WSW,257,0.0,0.0,97,0.00,,,0.00,,2013-08-29 10:24:00,
2013-08-29 05:53:00,66.0,65.0,30.01,WSW,257,0.0,0.0,97,0.00,,,0.00,,2013-08-29 10:53:00,
2013-08-29 06:12:00,66.0,65.0,30.01,WSW,257,0.0,0.0,97,0.00,,,0.00,,2013-08-29 11:12:00,
2013-08-29 06:22:00,66.0,65.0,30.01,WSW,257,0.0,0.0,97,0.00,,,0.00,,2013-08-29 11:22:00,
2013-08-29 06:42:00,66.0,65.0,30.01,WSW,257,0.0,0.0,97,0.00,,,0.00,,2013-08-29 11:42:00,
2013-08-29 06:52:00,66.0,65.0,30.01,WSW,257,0.0,0.0,97,0.00,,,0.00,,2013-08-29 11:52:00,
2013-08-29 07:11:00,66.0,65.0,30.02,WSW,257,0.0,0.0,97,0.00,,,0.00,,2013-08-29 12:11:00,
2013-08-29 07:22:00,66.0,65.0,30.02,WSW,257,0.0,0.0,97,0.00,,,0.00,,2013-08-29 12:22:00,
2013-08-29 07:42:00,66.0,65.0,30.03,WSW,257,0.0,0.0,98,0.00,,,0.00,,2013-08-29 12:42:00,
2013-08-29 08:52:00,73.0,72.0,30.03,WSW,257,0.0,0.0,97,0.00,,,0.00,,2013-08-29 13:52:00,
2013-08-29 09:11:00,74.0,72.0,30.03,WSW,257,0.0,0.0,94,0.00,,,0.00,,2013-08-29 14:11:00,
2013-08-29 09:21:00,76.0,72.0,30.03,WSW,257,0.0,2.0,86,0.00,,,0.00,,2013-08-29 14:21:00,
2013-08-29 09:42:00,78.0,72.0,30.03,SSW,193,0.0,4.0,81,0.00,,,0.00,,2013-08-29 14:42:00,
2013-08-29 09:52:00,81.0,73.0,30.03,WSW,253,0.0,1.0,77,0.00,,,0.00,,2013-08-29 14:52:00,
2013-08-29 10:12:00,83.0,73.0,30.03,WNW,290,0.0,2.0,71,0.00,,,0.00,,2013-08-29 15:12:00,
2013-08-29 10:21:00,84.0,73.0,30.03,WNW,286,0.0,1.0,70,0.00,,,0.00,,2013-08-29 15:21:00,
2013-08-29 10:43:00,84.0,73.0,30.03,WSW,248,0.0,4.0,70,0.00,,,0.00,,2013-08-29 15:43:00,
2013-08-29 10:53:00,85.0,73.0,30.03,West,271,0.0,2.0,67,0.00,,,0.00,,2013-08-29 15:53:00,
2013-08-29 11:13:00,87.0,74.0,30.03,West,261,1.0,3.0,66,0.00,,,0.00,,2013-08-29 16:13:00,
2013-08-29 11:24:00,88.0,74.0,30.03,SW,236,0.0,1.0,63,0.00,,,0.00,,2013-08-29 16:24:00,
2013-08-29 11:43:00,88.0,73.0,30.03,SSW,192,0.0,4.0,62,0.00,,,0.00,,2013-08-29 16:43:00,
2013-08-29 11:53:00,89.0,73.0,30.02,West,271,0.0,2.0,59,0.00,,,0.00,,2013-08-29 16:53:00,
2013-08-29 12:13:00,89.0,72.0,30.02,WSW,253,1.0,5.0,58,0.00,,,0.00,,2013-08-29 17:13:00,
2013-08-29 12:22:00,89.0,73.0,30.02,WNW,302,0.0,4.0,59,0.00,,,0.00,,2013-08-29 17:22:00,
2013-08-29 12:44:00,90.0,73.0,30.02,West,278,0.0,4.0,58,0.00,,,0.00,,2013-08-29 17:44:00,
2013-08-29 12:52:00,90.0,73.0,30.01,West,273,0.0,6.0,58,0.00,,,0.00,,2013-08-29 17:52:00,
2013-08-29 13:12:00,90.0,72.0,30.01,West,261,0.0,5.0,56,0.00,,,0.00,,2013-08-29 18:12:00,
2013-08-29 13:21:00,91.0,72.0,30.01,West,259,0.0,6.0,54,0.00,,,0.00,,2013-08-29 18:21:00,
2013-08-29 13:42:00,92.0,72.0,30.00,West,259,0.0,6.0,53,0.00,,,0.00,,2013-08-29 18:42:00,
2013-08-29 13:52:00,92.0,72.0,30.00,WNW,296,0.0,5.0,53,0.00,,,0.00,,2013-08-29 18:52:00,
2013-08-29 14:11:00,92.0,69.0,29.99,West,261,2.0,6.0,48,0.00,,,0.00,,2013-08-29 19:11:00,
2013-08-29 14:22:00,93.0,72.0,29.99,West,272,2.0,5.0,51,0.00,,,0.00,,2013-08-29 19:22:00,
2013-08-29 14:42:00,93.0,73.0,29.98,West,274,0.0,4.0,53,0.00,,,0.00,,2013-08-29 19:42:00,
2013-08-29 14:52:00,94.0,72.0,29.98,West,266,0.0,5.0,50,0.00,,,0.00,,2013-08-29 19:52:00,
2013-08-29 15:13:00,94.0,72.0,29.97,West,275,2.0,6.0,49,0.00,,,0.00,,2013-08-29 20:13:00,
2013-08-29 15:22:00,94.0,72.0,29.97,West,269,1.0,4.0,49,0.00,,,0.00,,2013-08-29 20:22:00,
2013-08-29 15:42:00,93.0,70.0,29.96,WSW,257,1.0,6.0,48,0.00,,,0.00,,2013-08-29 20:42:00,
2013-08-29 15:52:00,94.0,72.0,29.96,West,261,0.0,5.0,49,0.00,,,0.00,,2013-08-29 20:52:00,
2013-08-29 16:12:00,94.0,72.0,29.96,West,273,0.0,0.0,49,0.00,,,0.00,,2013-08-29 21:12:00,
2013-08-29 16:22:00,93.0,72.0,29.96,WSW,257,0.0,1.0,51,0.00,,,0.00,,2013-08-29 21:22:00,
2013-08-29 16:44:00,94.0,72.0,29.95,West,271,0.0,5.0,50,0.00,,,0.00,,2013-08-29 21:44:00,
2013-08-29 16:54:00,94.0,71.0,29.95,West,271,0.0,1.0,47,0.00,,,0.00,,2013-08-29 21:54:00,
2013-08-29 17:14:00,94.0,72.0,29.95,West,281,0.0,5.0,49,0.00,,,0.00,,2013-08-29 22:14:00,
2013-08-29 17:24:00,95.0,72.0,29.95,West,281,0.0,1.0,48,0.00,,,0.00,,2013-08-29 22:24:00,
2013-08-29 17:43:00,95.0,73.0,29.94,West,263,0.0,1.0,49,0.00,,,0.00,,2013-08-29 22:43:00,
2013-08-29 17:53:00,94.0,72.0,29.94,West,263,0.0,0.0,49,0.00,,,0.00,,2013-08-29 22:53:00,
2013-08-29 18:13:00,93.0,72.0,29.93,West,263,0.0,0.0,50,0.00,,,0.00,,2013-08-29 23:13:00,
2013-08-29 18:22:00,92.0,74.0,29.93,West,263,0.0,0.0,56,0.00,,,0.00,,2013-08-29 23:22:00,
2013-08-29 18:53:00,88.0,76.0,29.94,West,263,0.0,0.0,68,0.00,,,0.00,,2013-08-29 23:53:00,
2013-08-29 19:12:00,85.0,75.0,29.94,West,263,0.0,0.0,72,0.00,,,0.00,,2013-08-30 00:12:00,